Location: Bédeille
(43.0872°N, 1.1041°E)
Time: 12:13:01
(UTC+00:00)

IRIDIUM 114 - Pass Details

Date: 03 February 2023
Orbit: 776 x 779 km, 86.4° (Epoch: 19 March)

Event Time Altitude Azimuth Distance (km) Brightness Sun altitude
Rises 18:37:04 0° 359° (N) 3,273 7.5 -16.1°
Reaches altitude 10° 18:39:27 10° 1° (N) 2,341 6.7 -16.5°
Maximum altitude 18:44:41 72° 86° (E) 821 4.2 -17.5°
Drops below altitude 10° 18:49:52 10° 171° (S) 2,321 6.8 -18.4°
Sets 18:52:13 0° 173° (S) 3,244 7.5 -18.9°
